CW1734 Weather Reports


Display with metric or nautical units.
time (UTC)temp
F
wind
direction
speed
MPH
gust
MPH
rain 1hr
in
rain 24hr
in
rain mn
in
humidity
%
barometer
mb
20260901040404 52 166 0.0 0.0 0.00 0.00 0.00 89 1019.8
20260901035404 53 166 0.0 0.0 0.00 0.00 0.00 89 1019.8
20260901034904 53 166 0.0 0.0 0.00 0.00 0.00 89 1019.8
20260901034405 53 166 0.0 0.0 0.00 0.00 0.00 89 1019.8
20260901033904 53 166 0.0 0.0 0.00 0.00 0.00 89 1019.8
20260901033405 53 166 0.0 0.0 0.00 0.00 0.00 88 1019.8
20260901032404 54 166 0.0 0.0 0.00 0.00 0.00 88 1019.8
20260901031404 54 166 0.0 0.0 0.00 0.00 0.00 88 1019.8
20260901030904 54 166 0.0 0.0 0.00 0.00 0.00 88 1019.8
20260901030404 54 166 0.0 0.0 0.00 0.00 0.00 87 1019.8
20260901025904 54 166 0.0 0.0 0.00 0.00 0.00 87 1019.9
20260901025404 54 166 0.0 0.0 0.00 0.00 0.00 87 1019.8
20260901024904 54 167 0.0 2.0 0.00 0.00 0.00 87 1019.8
20260901024404 55 167 1.0 3.0 0.00 0.00 0.00 87 1019.9
20260901023904 55 166 1.0 3.0 0.00 0.00 0.00 87 1019.9
20260901023404 54 169 2.0 5.0 0.00 0.00 0.00 87 1019.9
20260901022904 54 162 0.0 1.0 0.00 0.00 0.00 87 1019.7
20260901022404 54 160 1.0 3.0 0.00 0.00 0.00 87 1019.7
20260901021904 54 158 2.0 5.0 0.00 0.00 0.00 87 1019.7
20260901021404 54 152 0.0 3.0 0.00 0.00 0.00 86 1019.7
20260901015905 55 177 0.0 1.0 0.00 0.00 0.00 85 1019.7
20260901015404 55 177 0.0 0.0 0.00 0.00 0.00 85 1019.7
20260901014904 55 177 0.0 2.0 0.00 0.00 0.00 85 1019.7
20260901014404 55 178 1.0 2.0 0.00 0.00 0.00 84 1019.7
20260901013904 55 178 2.0 3.0 0.00 0.00 0.00 84 1019.8
20260901013404 55 177 2.0 3.0 0.00 0.00 0.00 84 1019.7
20260901012905 56 202 2.0 3.0 0.00 0.00 0.00 83 1019.7
20260901012404 56 202 2.0 3.0 0.00 0.00 0.00 83 1019.7
20260901011904 56 206 2.0 3.0 0.00 0.00 0.00 83 1019.7
20260901011404 57 209 2.0 3.0 0.00 0.00 0.00 83 1019.7
20260901005904 57 215 0.0 0.0 0.00 0.00 0.00 82 1019.6
20260901005404 57 223 0.0 3.0 0.00 0.00 0.00 83 1019.6
20260901004904 57 233 0.0 3.0 0.00 0.00 0.00 83 1019.6
20260901004404 57 212 1.0 5.0 0.00 0.00 0.00 83 1019.6
20260901003904 57 214 2.0 3.0 0.00 0.00 0.00 83 1019.4
20260901003404 57 215 2.0 3.0 0.00 0.00 0.00 83 1019.4
20260901002904 56 222 2.0 3.0 0.00 0.00 0.00 83 1019.4
20260901001904 56 224 2.0 5.0 0.00 0.00 0.00 82 1019.4
20260901001404 56 212 0.0 0.0 0.00 0.00 0.00 81 1019.4
20260901000905 57 228 0.0 0.0 0.00 0.00 0.00 81 1019.4
20260901000405 57 230 0.0 0.0 0.00 0.00 0.00 81 1019.4
20260831235404 58 235 1.0 3.0 0.00 0.00 0.00 79 1019.4
20260831234904 58 236 2.0 3.0 0.00 0.00 0.00 79 1019.5
20260831234404 58 247 1.0 3.0 0.00 0.00 0.00 78 1019.6
20260831233904 58 251 1.0 3.0 0.00 0.00 0.00 78 1019.6
20260831233404 58 229 1.0 3.0 0.00 0.00 0.00 78 1019.5
20260831232904 59 234 2.0 5.0 0.00 0.01 0.00 77 1019.5
20260831232404 59 261 2.0 5.0 0.00 0.02 0.00 77 1019.5
20260831231904 59 261 2.0 5.0 0.00 0.02 0.00 77 1019.5
20260831231405 59 249 2.0 5.0 0.00 0.02 0.00 76 1019.5
20260831230404 59 220 2.0 3.0 0.00 0.02 0.00 76 1019.5
20260831224904 59 272 2.0 5.0 0.00 0.02 0.02 76 1019.5
20260831224404 60 206 2.0 5.0 0.00 0.02 0.02 76 1019.5
20260831223904 60 244 2.0 7.0 0.00 0.03 0.02 76 1019.5
20260831223404 60 242 2.0 6.0 0.00 0.03 0.02 76 1019.5
20260831222904 60 254 3.0 6.0 0.00 0.03 0.02 75 1019.4
20260831222404 60 267 2.0 6.0 0.00 0.03 0.02 75 1019.4
20260831221904 60 283 3.0 8.0 0.00 0.03 0.02 75 1018.9
20260831221405 60 280 5.0 8.0 0.00 0.03 0.02 75 1018.9
20260831220904 60 285 5.0 8.0 0.00 0.03 0.02 74 1018.9
20260831220404 60 275 4.0 8.0 0.00 0.03 0.02 74 1018.9
20260831215904 60 273 4.0 8.0 0.00 0.03 0.02 74 1018.9
20260831215404 60 279 5.0 8.0 0.00 0.03 0.02 74 1018.9
20260831214404 60 270 5.0 10.0 0.00 0.03 0.02 73 1018.9
20260831213904 60 277 6.0 10.0 0.00 0.03 0.02 73 1018.9
20260831213404 60 282 6.0 9.0 0.00 0.03 0.02 73 1018.9
20260831212904 60 279 5.0 8.0 0.00 0.03 0.02 73 1018.9
20260831212404 61 275 5.0 8.0 0.00 0.03 0.02 72 1018.9
20260831211904 61 277 5.0 8.0 0.00 0.03 0.02 72 1018.9
20260831211404 61 276 5.0 8.0 0.00 0.03 0.02 71 1018.9
20260831210404 61 282 6.0 9.0 0.00 0.03 0.02 71 1018.9
20260831205904 61 274 6.0 10.0 0.00 0.03 0.02 71 1018.8
20260831205404 61 281 7.0 12.0 0.00 0.03 0.02 70 1018.3
20260831204904 61 278 7.0 12.0 0.00 0.03 0.02 70 1018.3
20260831204404 61 281 5.0 10.0 0.00 0.03 0.02 70 1018.3
20260831203904 61 282 7.0 15.0 0.00 0.03 0.02 70 1018.3
20260831203404 62 280 6.0 10.0 0.00 0.03 0.02 70 1018.3
20260831202404 62 284 5.0 10.0 0.00 0.03 0.02 70 1018.3
20260831201905 62 289 5.0 9.0 0.00 0.03 0.02 69 1018.3
20260831201404 62 280 6.0 12.0 0.00 0.03 0.02 69 1017.9
20260831200903 62 296 7.0 10.0 0.00 0.03 0.02 69 1017.9
20260831200404 62 279 7.0 13.0 0.00 0.03 0.02 69 1017.9
20260831195904 63 274 6.0 9.0 0.00 0.03 0.02 69 1017.9
20260831195404 63 267 6.0 10.0 0.00 0.03 0.02 68 1017.9
20260831194904 63 274 5.0 9.0 0.00 0.03 0.02 68 1017.9
20260831194404 63 280 9.0 14.0 0.00 0.03 0.02 68 1017.9
20260831193903 63 287 9.0 14.0 0.00 0.03 0.02 69 1017.9
20260831193404 63 288 7.0 10.0 0.00 0.03 0.02 70 1017.0
20260831192903 64 279 6.0 9.0 0.00 0.03 0.02 70 1017.0
20260831192404 64 288 6.0 10.0 0.00 0.03 0.02 70 1017.0
20260831191904 64 280 7.0 12.0 0.00 0.03 0.02 71 1017.0
20260831190905 64 283 5.0 9.0 0.00 0.03 0.02 71 1017.0
20260831185904 65 283 6.0 13.0 0.00 0.03 0.02 70 1017.0
20260831185404 65 280 6.0 9.0 0.00 0.03 0.02 70 1017.0
20260831184904 65 278 6.0 10.0 0.00 0.03 0.02 69 1017.0
20260831183904 66 278 7.0 12.0 0.00 0.03 0.02 69 1016.8
20260831183404 66 291 5.0 8.0 0.00 0.03 0.02 69 1016.8
20260831182904 67 309 7.0 10.0 0.00 0.03 0.02 68 1016.8
20260831182404 67 298 10.0 14.0 0.00 0.03 0.02 68 1016.7
20260831181904 67 277 7.0 16.0 0.00 0.03 0.02 67 1016.7
20260831180904 68 272 6.0 12.0 0.00 0.03 0.02 66 1016.6
20260831180404 68 285 7.0 15.0 0.00 0.03 0.02 66 1016.6
20260831175903 68 275 9.0 14.0 0.00 0.03 0.02 66 1016.4
20260831175404 68 293 8.0 15.0 0.00 0.03 0.02 66 1016.4
20260831174404 69 234 5.0 15.0 0.00 0.03 0.02 65 1016.3
20260831173904 69 246 4.0 10.0 0.00 0.03 0.02 64 1016.3
20260831172904 69 242 5.0 12.0 0.00 0.03 0.02 64 1016.2
20260831172404 69 259 7.0 13.0 0.00 0.03 0.02 64 1016.0
20260831171904 69 255 5.0 10.0 0.00 0.03 0.02 64 1016.0
20260831171404 69 267 5.0 10.0 0.00 0.03 0.02 63 1016.0
20260831170404 70 233 5.0 13.0 0.00 0.03 0.02 62 1016.0
20260831165904 70 260 6.0 15.0 0.00 0.03 0.02 61 1016.0
20260831165404 70 262 8.0 15.0 0.00 0.03 0.02 61 1015.9
20260831164904 71 268 6.0 14.0 0.00 0.03 0.02 62 1015.5
20260831164405 71 273 3.0 13.0 0.00 0.03 0.02 63 1015.5
20260831163903 71 272 6.0 15.0 0.00 0.03 0.02 63 1015.5
20260831163404 71 260 5.0 12.0 0.00 0.03 0.02 63 1015.5
20260831162404 70 258 5.0 13.0 0.00 0.03 0.02 63 1015.2
20260831161404 70 235 6.0 15.0 0.00 0.03 0.02 69 1015.2
20260831160404 71 257 5.0 12.0 0.00 0.03 0.02 70 1015.2
20260831155904 71 249 5.0 10.0 0.00 0.03 0.02 69 1015.2
20260831155404 71 254 5.0 14.0 0.00 0.03 0.02 70 1015.2
20260831154904 71 241 7.0 14.0 0.00 0.03 0.02 69 1015.2
20260831154404 71 212 6.0 14.0 0.00 0.03 0.02 69 1015.2
20260831153904 71 221 5.0 12.0 0.00 0.03 0.02 68 1015.0
20260831153404 71 231 5.0 9.0 0.00 0.03 0.02 69 1015.0
20260831152903 71 236 8.0 14.0 0.00 0.03 0.02 69 1015.0
20260831152404 71 250 5.0 12.0 0.00 0.03 0.02 69 1015.0
20260831151903 70 248 6.0 14.0 0.00 0.03 0.02 70 1015.0
20260831151403 70 233 6.0 15.0 0.00 0.03 0.02 70 1014.9
20260831150905 70 225 7.0 15.0 0.00 0.03 0.02 70 1014.9
20260831150404 70 223 7.0 18.0 0.00 0.03 0.02 69 1014.9
20260831145904 71 232 6.0 14.0 0.00 0.03 0.02 69 1014.9
20260831145404 71 261 5.0 15.0 0.00 0.03 0.02 69 1014.9
20260831144904 71 225 6.0 12.0 0.00 0.03 0.02 69 1014.9
20260831144404 71 250 7.0 16.0 0.00 0.03 0.02 69 1014.6
20260831143904 71 226 7.0 17.0 0.00 0.03 0.02 69 1014.6
20260831143403 72 202 5.0 12.0 0.00 0.03 0.02 67 1014.6
20260831142905 73 235 4.0 12.0 0.00 0.03 0.02 67 1014.6
20260831142404 71 233 3.0 10.0 0.00 0.03 0.02 68 1014.6
20260831141904 70 240 5.0 10.0 0.00 0.03 0.02 66 1014.6
20260831141404 70 241 5.0 12.0 0.00 0.03 0.02 66 1014.5
20260831140904 70 264 8.0 20.0 0.00 0.03 0.02 66 1014.5
20260831140404 72 238 6.0 12.0 0.00 0.03 0.02 61 1014.5
20260831135404 74 275 6.0 18.0 0.00 0.03 0.02 59 1013.8
20260831134404 75 241 6.0 13.0 0.00 0.03 0.02 56 1013.8
20260831133904 75 256 5.0 16.0 0.00 0.03 0.02 56 1013.8
20260831133404 75 218 7.0 14.0 0.00 0.03 0.02 58 1013.8
20260831132904 75 255 6.0 15.0 0.00 0.03 0.02 59 1013.8
20260831132404 76 248 5.0 13.0 0.00 0.03 0.02 60 1013.8
20260831131904 75 226 6.0 16.0 0.00 0.03 0.02 57 1013.8
20260831131404 75 244 5.0 21.0 0.00 0.03 0.02 58 1013.9
20260831130904 75 252 6.0 13.0 0.00 0.03 0.02 59 1013.7
20260831130404 74 252 5.0 13.0 0.00 0.03 0.02 60 1013.7
20260831125904 74 261 7.0 16.0 0.00 0.03 0.02 60 1013.7
20260831125404 74 265 6.0 14.0 0.00 0.03 0.02 60 1013.7
20260831124404 74 272 9.0 15.0 0.00 0.03 0.02 61 1013.6
20260831122404 72 274 7.0 15.0 0.00 0.03 0.02 63 1013.3
20260831121904 72 273 7.0 16.0 0.00 0.03 0.02 63 1013.3
20260831121404 74 283 12.0 20.0 0.00 0.03 0.02 61 1013.1
20260831120904 73 250 5.0 14.0 0.00 0.03 0.02 61 1013.1
20260831120405 74 277 6.0 15.0 0.00 0.03 0.02 64 1013.1
20260831115404 71 322 4.0 8.0 0.00 0.03 0.02 66 1013.1
20260831114904 72 241 5.0 20.0 0.00 0.03 0.02 62 1013.1
20260831114404 73 285 9.0 15.0 0.00 0.03 0.02 66 1012.9
20260831113903 71 291 7.0 15.0 0.00 0.03 0.02 65 1012.9
20260831113404 72 269 8.0 15.0 0.00 0.03 0.02 66 1012.9
20260831112904 72 256 7.0 18.0 0.00 0.03 0.02 63 1012.6
20260831112404 73 285 9.0 16.0 0.00 0.03 0.02 65 1012.6
20260831111904 71 286 7.0 18.0 0.00 0.03 0.02 64 1012.6
20260831110404 72 301 10.0 16.0 0.00 0.03 0.02 66 1012.1
20260831105903 71 245 6.0 10.0 0.00 0.03 0.02 67 1012.1
20260831105404 71 268 6.0 16.0 0.00 0.03 0.02 67 1012.1
20260831104903 71 275 8.0 16.0 0.00 0.03 0.02 68 1012.1
20260831104404 70 274 11.0 16.0 0.00 0.03 0.02 70 1012.1
20260831103904 70 287 10.0 20.0 0.00 0.03 0.02 70 1012.1
20260831103404 69 275 7.0 20.0 0.00 0.03 0.02 72 1012.1
20260831102904 69 279 7.0 16.0 0.00 0.03 0.02 69 1011.8
20260831102404 69 266 7.0 22.0 0.00 0.03 0.02 69 1011.8
20260831101904 70 276 12.0 17.0 0.00 0.03 0.02 69 1011.8
20260831101404 70 273 10.0 17.0 0.00 0.03 0.02 69 1011.8
20260831100404 71 268 6.0 12.0 0.00 0.04 0.02 69 1011.7
20260831095904 70 285 9.0 17.0 0.00 0.04 0.02 71 1011.7
20260831095404 69 263 9.0 20.0 0.00 0.04 0.02 71 1011.7
20260831094404 69 266 8.0 15.0 0.00 0.04 0.02 72 1011.1
20260831093903 68 263 7.0 18.0 0.00 0.04 0.02 74 1011.1
20260831093403 68 262 10.0 18.0 0.00 0.04 0.02 74 1011.1
20260831092904 68 283 12.0 21.0 0.00 0.04 0.02 74 1011.1
20260831092405 68 241 5.0 15.0 0.00 0.04 0.02 75 1011.1
20260831091904 68 258 5.0 12.0 0.00 0.04 0.02 74 1011.1
20260831091404 68 267 6.0 17.0 0.00 0.04 0.02 76 1011.1
20260831090904 67 275 7.0 18.0 0.00 0.04 0.02 75 1010.4
20260831090404 67 281 10.0 17.0 0.00 0.04 0.02 76 1010.4
20260831085904 66 255 6.0 17.0 0.00 0.04 0.02 77 1010.4
20260831085404 65 275 5.0 18.0 0.00 0.04 0.02 78 1010.4
20260831084904 65 265 7.0 17.0 0.00 0.04 0.02 78 1010.4
20260831084404 65 258 5.0 17.0 0.00 0.04 0.02 78 1010.4
20260831083404 65 238 7.0 16.0 0.00 0.04 0.02 77 1010.4
20260831082904 65 243 6.0 14.0 0.00 0.04 0.02 79 1010.4
20260831082403 64 268 8.0 14.0 0.00 0.04 0.02 80 1010.4
20260831081904 63 254 8.0 15.0 0.00 0.04 0.02 80 1009.9
20260831081404 64 249 6.0 13.0 0.00 0.04 0.02 80 1009.9
20260831080904 63 263 7.0 14.0 0.00 0.04 0.02 80 1009.9
20260831080404 63 262 7.0 15.0 0.00 0.04 0.02 80 1009.9
20260831075404 63 227 3.0 10.0 0.00 0.04 0.02 81 1009.9
20260831074904 63 242 6.0 14.0 0.00 0.04 0.02 81 1009.9
20260831074403 63 252 6.0 13.0 0.00 0.04 0.02 81 1009.9
20260831073904 63 261 6.0 15.0 0.00 0.04 0.02 81 1009.2
20260831073404 63 260 9.0 15.0 0.00 0.04 0.02 81 1009.2
20260831072904 63 255 6.0 14.0 0.00 0.04 0.02 81 1009.2
20260831072404 63 259 7.0 15.0 0.00 0.04 0.02 81 1009.2
20260831071904 63 250 5.0 12.0 0.00 0.04 0.02 81 1009.2
20260831071404 63 247 5.0 14.0 0.00 0.04 0.02 81 1009.2
20260831070904 62 239 6.0 12.0 0.00 0.04 0.02 81 1009.2
20260831070404 62 254 5.0 10.0 0.00 0.04 0.02 81 1009.2
20260831065904 62 220 6.0 16.0 0.00 0.04 0.02 81 1009.2
20260831063904 62 244 6.0 14.0 0.00 0.04 0.02 80 1008.5
20260831063404 62 244 5.0 10.0 0.00 0.06 0.02 80 1008.5
20260831062904 62 241 5.0 9.0 0.00 0.06 0.02 81 1008.5
20260831062404 62 249 5.0 14.0 0.00 0.06 0.02 81 1008.5
20260831061403 62 252 5.0 12.0 0.00 0.06 0.02 82 1008.4
20260831060903 61 243 6.0 12.0 0.00 0.06 0.02 82 1008.3
20260831060404 61 246 7.0 13.0 0.00 0.06 0.02 83 1008.3
20260831055404 61 244 4.0 10.0 0.00 0.06 0.02 82 1008.0
20260831054904 61 236 6.0 13.0 0.00 0.06 0.02 82 1008.0
20260831054404 61 249 6.0 14.0 0.00 0.06 0.02 82 1008.0
20260831053403 61 264 6.0 14.0 0.00 0.06 0.02 82 1007.7
20260831052904 61 238 5.0 10.0 0.00 0.06 0.02 82 1007.7
20260831052403 61 247 6.0 13.0 0.00 0.06 0.02 81 1007.4
20260831051904 61 245 3.0 12.0 0.00 0.06 0.02 81 1007.4
20260831051404 61 237 5.0 10.0 0.00 0.06 0.02 81 1007.4
20260831050904 61 246 5.0 10.0 0.00 0.06 0.02 81 1007.4
20260831050404 61 254 7.0 12.0 0.00 0.06 0.02 81 1007.4
20260831045904 61 249 6.0 13.0 0.00 0.06 0.02 81 1007.1
20260831045404 61 255 6.0 14.0 0.00 0.06 0.02 81 1007.1
20260831044904 61 246 5.0 8.0 0.00 0.06 0.02 81 1007.1
20260831044404 61 250 5.0 12.0 0.00 0.06 0.02 81 1007.1
20260831043904 61 247 5.0 9.0 0.00 0.06 0.02 81 1007.1
20260831043404 61 248 5.0 10.0 0.00 0.06 0.02 81 1007.0
20260831042904 61 242 5.0 10.0 0.00 0.06 0.02 81 1006.9
20260831041903 61 214 5.0 12.0 0.00 0.06 0.02 81 1006.9
20260831041403 61 259 5.0 12.0 0.00 0.06 0.02 81 1006.9